Regional Weather Roundup
Issued by NWS

Home | Current Version | Previous Version | Graphics & Text | Print | Product List | Glossary On
Versions: 1 2 3 4 5 6 7 8 9 10 11 12 13 14 15 16 17 18 19 20 21 22 23 24 25 26 27 28 29 30 31 32 33 34 35 36 37 38 39 40 41 42 43 44 45 46 47 48 49 50
000
ASUS43 KDTX 260810
RWRMI
MICHIGAN HOURLY REGIONAL WEATHER ROUNDUP
NATIONAL WEATHER SERVICE DETROIT/PONTIAC MI
400 AM EDT WED APR 26 2017

NOTE: "FAIR" INDICATES FEW OR NO CLOUDS BELOW 12,000 FEET WITH NO
SIGNIFICANT WEATHER AND/OR OBSTRUCTION TO VISIBILITY.

MIZ047>049-052>055-059>063-066>070-074>076-081>083-260900-
SOUTHEAST LOWER MICHIGAN

CITY           SKY/WX    TMP DP  RH WIND       PRES   REMARKS
ADRIAN         CLOUDY    54  52  93 E3        29.69R
ALMA           MOCLDY    58  54  85 SE6       29.66S
ANN ARBOR      CLEAR     56  53  90 E3        29.70S
BAD AXE        PTCLDY    53  51  91 SE8       29.72F
CARO           PTCLDY    55  52  88 SE9       29.69F
DETROIT CITY   CLEAR     52  51  97 E7        29.71F
DETROIT        PTCLDY    57  53  86 SE5       29.70F
FLINT          CLEAR     57  52  83 S8        29.70R
GROSSE ILE     CLEAR     58  54  85 SE6       29.69F
HILLSDALE      PTCLDY    55  52  88 SE7       29.67F
HOWELL         CLOUDY    56  51  82 SE8       29.69R

CITY           SKY/WX    TMP DP  RH WIND       PRES   REMARKS
JACKSON        MOCLDY    59  53  80 SE7       29.67F
LAMBERTVILLE   CLEAR     56  53  89 S6        29.69S
LANSING        CLOUDY    60  52  74 SE9       29.67F
LAPEER         FAIR      54  51  90 SE8       29.71F
MASON          CLOUDY    58  54  84 SE6       29.67F
MONROE         CLEAR     56  54  93 SE5       29.68F
MT. CLEMENS    CLEAR     50  50 100 E6        29.71F
PONTIAC        CLEAR     55  51  86 E9        29.69F
PORT HOPE        N/A     51  49  92 SE12G18   29.70F
PORT HURON     CLEAR     54  50  87 SE5       29.73F
TRI CITIES     CLOUDY    59  54  83 SE12      29.68S
MIDLAND        CLOUDY    60  51  73 SE5       29.67S
TROY           CLEAR     54  50  87 E7        29.72F
SAGINAW HB     PTCLDY    55  50  82 SE6       29.68S
$$
MIZ043>046-050>051-056>058-064>065-071>073-077>080-260900-
SOUTHWEST LOWER MICHIGAN

CITY           SKY/WX    TMP DP  RH WIND       PRES   REMARKS
BATTLE CREEK   CLOUDY    61  54  77 SE10      29.64F
BENTON HARBOR  MOCLDY    65  54  67 SE8       29.57F
BIG RAPIDS     CLOUDY    59  52  76 SE7       29.62S
COLDWATER      MOCLDY    59  54  83 SE7       29.65F
FREMONT        FAIR      61  51  70 SE8       29.59F
HOLLAND        MOCLDY    61  54  77 SE9       29.58F
GRAND RAPIDS   CLOUDY    61  54  77 SE8       29.61F
IONIA          FAIR      58  53  81 SE8       29.63F
KALAMAZOO      CLOUDY    60  52  74 SE6       29.62F
LUDINGTON      CLOUDY    63  55  74 SE8       29.55F
MARSHALL       PTCLDY    59  55  84 SE7       29.65F
MOUNT PLEASANT CLOUDY    59  52  77 SE8       29.65S
MUSKEGON       PTCLDY    64  54  69 SE12      29.57F
SOUTH HAVEN    PTCLDY    61  55  78 SE7       29.57F
$$
MIZ016>042-260900-
NORTHERN LOWER MICHIGAN

CITY           SKY/WX    TMP DP  RH WIND       PRES   REMARKS
ALPENA         CLOUDY    46  46 100 SE8       29.72F FOG
BEAVER ISLAND  CLOUDY    43  42  97 E12       29.65F FOG
BELLAIRE       MOCLDY    62  52  68 CALM      29.63F
CADILLAC       CLOUDY    58  53  83 E6        29.64S
CHARLEVOIX     CLOUDY    59  52  77 E9        29.65F
FRANKFORT      CLOUDY    64  52  66 E9        29.57F
GAYLORD        CLOUDY    56  49  77 SE8       29.67F
GRAYLING       CLOUDY    56  51  84 SE9       29.68S
HARBOR SPRINGS CLOUDY    50  48  93 E9        29.66S
HOUGHTON LAKE  CLOUDY    57  51  80 SE8       29.67F
MANISTEE       CLOUDY    63  54  72 E8        29.56F
OSCODA         PTCLDY    47  46  94 SW3       29.71F FOG
PELLSTON       CLOUDY    48  44  86 E5        29.68F
ROGERS CITY    CLOUDY    46  45  95 CALM      29.71F FOG
TRAVERSE CITY  CLOUDY    58  49  72 W3        29.60F
$$
MIZ007>008-015-260900-
EASTERN UPPER MICHIGAN

CITY           SKY/WX    TMP DP  RH WIND       PRES   REMARKS
KINROSS        CLOUDY    47  46  97 E15       29.71F FOG
MACKINAC ISLAN FOG       40  40 100 E14G29    29.69F VSB 1/4 WCI  33
NEWBERRY       FOG       47  46  97 NE7       29.67F VSB 1
S. S. MARIE    CLOUDY    50  49  96 E8        29.71F FOG
MUNISING         N/A     42  42 100 NE14      29.66F
$$
MIZ004>006-011>014-085-260900-
CENTRAL UPPER MICHIGAN

CITY           SKY/WX    TMP DP  RH WIND       PRES   REMARKS
MANISTIQUE     MOCLDY    48  47  97 E7        29.63F
ESCANABA       LGT RAIN  48  46  93 NE9       29.59F
MENOMINEE      LGT RAIN  45  43  93 NE10      29.56F
SAWYER-GWINN   LGT RAIN  40  39  97 NE10      29.63F WCI  34
$$
MIZ001>003-009>011-084-260900-
WESTERN UPPER MICHIGAN

CITY           SKY/WX    TMP DP  RH WIND       PRES   REMARKS
IRON MOUNTAIN  RAIN      51  47  86 VRB7      29.57F FOG
HOUGHTON       LGT RAIN  35  31  85 NE10      29.69S WCI  27
COPPER HARBOR    N/A     35  32  88 E12G23    29.75F WCI  27
IRONWOOD       MIX PCPN  32  31  96 NE12G21   29.64F WCI  23
$$

ABBREVIATIONS USED IN REMARKS
   TC - TEMPERATURE IN CELSIUS
  WCI - WIND CHILL INDEX
   HX - HEAT INDEX
  VSB - VISIBILITY





USA.gov is the U.S. government's official web portal to all federal, state and local government web resources and services.